Regional Weather Roundup
Issued by NWS

Home | Current Version | Previous Version | Text Only | Print | Product List | Glossary Off
Versions: 1 2 3 4 5 6 7 8 9 10 11 12 13 14 15 16 17 18 19 20 21 22 23 24 25 26 27 28 29 30 31 32 33 34 35 36 37 38 39 40 41 42 43 44 45 46 47 48 49 50

000
ASUS43 KLSX 301059
RWRMO

WEATHER SUMMARY FOR MISSOURI
NATIONAL WEATHER SERVICE SPRINGFIELD MO
600 AM CDT MON MAR 30 2015

NOTE: "FAIR" INDICATES FEW OR NO CLOUDS BELOW 12,000 FEET WITH NO
       SIGNIFICANT WEATHER AND/OR OBSTRUCTIONS TO VISIBILITY.
       CURRENT SKY AND/OR WEATHER CONDITIONS ARE NOT AVAILABLE FOR
       CHILLICOTHE AND FARMINGTON.

MOZ001>031-035>038-043-044-053-054-301200-
...NORTHERN AND WESTERN MISSOURI...

CITY           SKY/WX    TMP DP  RH WIND       PRES   REMARKS
KANSAS CTY INT CLEAR     36  30  79 SW8       30.16S WCI  30
KANSAS C DTWN  CLEAR     38  34  85 SW5       30.17S
LEE`S SUMMIT   CLEAR     42  33  70 SW6       30.17S
CHILLICOTHE      N/A     33  30  88 CALM      30.16F
KIRKSVILLE     CLEAR     32  27  81 SW6       30.15R WCI  26

$$
MOZ066>068-077>081-088>096-101>105-301200-
...SOUTHWEST MISSOURI...

CITY           SKY/WX    TMP DP  RH WIND       PRES   REMARKS
SPRINGFIELD    CLEAR     35  32  88 CALM      30.20R
JOPLIN         CLEAR     38  36  92 CALM      30.19F

$$
MOZ032>034-039>042-045>050-055>058-069>072-301200-
...CENTRAL MISSOURI...

CITY           SKY/WX    TMP DP  RH WIND       PRES   REMARKS
COLUMBIA       CLEAR     42  35  76 W5        30.17S
JEFFERSON CITY CLEAR     34  33  96 NW5       30.19R WCI  30
ROLLA          CLEAR     40  34  79 CALM      30.17R
SEDALIA        CLEAR     39  33  79 SW9       30.19R
OSAGE BEACH    CLEAR     34  30  86 CALM      30.19R

$$
MOZ051-052-059>065-301200-
...EAST CENTRAL MISSOURI...

CITY           SKY/WX    TMP DP  RH WIND       PRES   REMARKS
ST LOUIS INTL  CLEAR     42  34  73 W7        30.16R
SPIRIT OF STL  CLEAR     33  30  88 CALM      30.16R
ST CHARLES     CLEAR     39  35  86 W7        30.15R

$$
MOZ072>076-082>087-097>100-106>115-301200-
...SOUTH CENTRAL AND SOUTHEAST MISSOURI...

CITY           SKY/WX    TMP DP  RH WIND       PRES   REMARKS
CAPE GIRARDEAU CLEAR     42  38  85 CALM      30.14R
FARMINGTON     CLEAR     39  34  81 NW5       30.19R
POPLAR BLUFF   CLEAR     41  37  86 CALM      30.15R
WEST PLAINS    CLEAR     43  36  76 NW6       30.18R

$$


USA.gov is the U.S. government's official web portal to all federal, state and local government web resources and services.